Regional Weather Roundup
Issued by NWS Sioux Falls, SD

Home | Current Version | Previous Version | Graphics & Text | Print | Product List | Glossary On
Versions: 1 2 3 4 5 6 7 8 9 10 11 12 13 14 15 16 17 18 19 20 21 22 23 24 25 26 27 28 29 30 31 32 33 34 35 36 37 38 39 40 41 42 43 44 45 46 47 48 49 50
000
ASUS43 KFSD 291210
RWRFSD

WEATHER ROUNDUP FOR SE SOUTH DAKOTA/SW MINNESOTA/NW IOWA
NATIONAL WEATHER SERVICE SIOUX FALLS SD
700 AM CDT FRI JUL 29 2016

NOTE: "FAIR" INDICATES FEW OR NO CLOUDS BELOW 12,000 FEET WITH NO
SIGNIFICANT WEATHER AND OR OBSTRUCTIONS TO VISIBILITY.


SDZ038>040-050-052>070-291300-
SOUTHEAST SOUTH DAKOTA

CITY           SKY/WX    TMP DP  RH WIND       PRES   REMARKS
BROOKINGS      CLEAR     55  53  93 NE3       30.09R
CHAMBERLAIN    PTCLDY    65  65 100 CALM      30.09S FOG
6HR MIN TEMP:  65; 6HR MAX TEMP:  69; 6HR PCP:  0.05;

HURON          CLEAR     57  54  89 CALM      30.09R
6HR MIN TEMP:  55; 6HR MAX TEMP:  66;

MADISON        FAIR      54  54 100 N3        30.09S
MITCHELL       CLOUDY    58  56  93 NE3       30.09R
6HR MIN TEMP:  57; 6HR MAX TEMP:  65;

SIOUX FALLS    PTCLDY    57  54  89 CALM      30.08R
6HR MIN TEMP:  55; 6HR MAX TEMP:  60;

WINNER         PTSUNNY   64  62  93 CALM      30.10S FOG
YANKTON        MOCLDY    57  54  88 N3        30.07R
$$

MNZ071-072-080-081-089-090-097-098-291300-
SOUTHWEST MINNESOTA

CITY           SKY/WX    TMP DP  RH WIND       PRES   REMARKS
FAIRMONT       MOCLDY    61  55  82 N6        30.04R
JACKSON        CLOUDY    59  55  88 CALM      30.07R
LUVERNE        CLEAR     59  54  82 CALM      30.08S
MARSHALL       CLEAR     54  53  97 NW5       30.09R
6HR MIN TEMP:  52; 6HR MAX TEMP:  58;

MONTEVIDEO     CLEAR     57  55  94 CALM      30.11R
REDWOOD FALLS  CLEAR     58  55  90 N6        30.07S
TRACY          CLEAR     57  56  95 NW6       30.08S
WINDOM         CLEAR     61  57  88 N5        30.07R
WORTHINGTON    CLEAR     57  55  93 N6        30.08R
$$

IAZ001>003-012>014-020>022-031-032-NEZ013-014-SDZ071-291300-
NORTHWEST IOWA

CITY           SKY/WX    TMP DP  RH WIND       PRES   REMARKS
CHEROKEE       PTCLDY    60  60 100 N5        30.05R
DENISON        CLEAR     59  59 100 CALM      30.03R FOG
ESTHERVILLE    PTCLDY    60  59  96 N9        30.04R
LE MARS        MOCLDY    59  59 100 CALM      30.07R
SHELDON        CLOUDY    55  55 100 CALM      30.05R
SIOUX CITY     CLEAR     63  59  87 N5        30.05R
6HR MIN TEMP:  62; 6HR MAX TEMP:  69;

SPENCER        CLEAR     60  57  89 N7        30.05R
6HR MIN TEMP:  58; 6HR MAX TEMP:  63;

STORM LAKE     PTCLDY    61  61 100 N7        30.05R
$$

ABBREVIATIONS USED IN REMARKS
   TC - TEMPERATURE IN CELSIUS
  WCI - WIND CHILL INDEX
   HX - HEAT INDEX
  VSB - VISIBILITY





USA.gov is the U.S. government's official web portal to all federal, state and local government web resources and services.